Location: Boiro
(42.6475°N, 8.8834°W)
Time: 02:53:43
(UTC+01:00)

Vanguard 3 - Pass Details

Date: 08 December 2021
Orbit: 508 x 3260 km, 33.3° (Epoch: 19 January)

Event Time Altitude Azimuth Distance (km) Brightness Sun altitude
Exits shadow 02:46:59 30° 114° (ESE) 4,682 10.8 -64.1°
Drops below altitude 10° 02:57:16 10° 88° (E) 6,054 11.8 -62.7°
Sets 03:02:12 0° 81° (E) 6,882 12.2 -62.0°
